�������ċp�F�����K�X���j�^�v���󋵏��
Date,Time,�ċp�F�����K�X���j�^(cps),����,����(m/s)
2022/09/22,00:00,1.4,�k�k��,7.0
2022/09/22,00:10,1.4,�k�k��,7.0
2022/09/22,00:20,1.5,�k�k��,6.7
2022/09/22,00:30,1.4,�k�k��,7.4
2022/09/22,00:40,1.4,�k�k��,7.4
2022/09/22,00:50,1.4,�k�k��,7.1
2022/09/22,01:00,1.4,�k�k��,7.1
2022/09/22,01:10,1.5,�k�k��,6.3
2022/09/22,01:20,1.4,�k�k��,7.1
2022/09/22,01:30,1.5,�k�k��,6.3
2022/09/22,01:40,1.4,�k�k��,6.4
2022/09/22,01:50,1.4,�k�k��,6.6
2022/09/22,02:00,1.5,�k�k��,7.0
2022/09/22,02:10,1.4,�k�k��,7.1
2022/09/22,02:20,1.5,�k�k��,6.5
2022/09/22,02:30,1.5,�k�k��,6.4
2022/09/22,02:40,1.5,�k�k��,7.0
2022/09/22,02:50,1.4,�k�k��,7.4
2022/09/22,03:00,1.4,�k�k��,7.7
2022/09/22,03:10,1.3,�k�k��,7.5
2022/09/22,03:20,1.5,�k�k��,6.7
2022/09/22,03:30,1.5,�k�k��,7.8
2022/09/22,03:40,1.4,�k�k��,7.6
2022/09/22,03:50,1.4,�k�k��,7.0
2022/09/22,04:00,1.4,�k�k��,8.1
2022/09/22,04:10,1.5,�k�k��,6.9
2022/09/22,04:20,1.4,�k�k��,8.0
2022/09/22,04:30,1.5,�k�k��,6.7
2022/09/22,04:40,1.4,�k�k��,7.5
2022/09/22,04:50,1.5,�k�k��,6.9
2022/09/22,05:00,1.4,�k�k��,7.8
2022/09/22,05:10,1.5,�k�k��,7.5
2022/09/22,05:20,1.4,�k�k��,7.8
2022/09/22,05:30,1.4,�k�k��,7.4
2022/09/22,05:40,1.4,�k�k��,7.5
2022/09/22,05:50,1.4,�k�k��,7.0
2022/09/22,06:00,1.4,�k�k��,6.7
2022/09/22,06:10,1.5,�k�k��,6.2
2022/09/22,06:20,1.4,�k�k��,6.3
2022/09/22,06:30,1.4,�k�k��,6.9
2022/09/22,06:40,1.4,�k�k��,7.4
2022/09/22,06:50,1.5,�k�k��,7.6
2022/09/22,07:00,1.4,�k�k��,6.6
2022/09/22,07:10,1.4,�k�k��,7.6
2022/09/22,07:20,1.4,�k�k��,6.9
2022/09/22,07:30,1.5,�k�k��,7.2
2022/09/22,07:40,1.5,�k�k��,6.0
2022/09/22,07:50,1.4,�k�k��,6.7
2022/09/22,08:00,1.4,�k�k��,5.8
2022/09/22,08:10,1.5,�k�k��,5.8
2022/09/22,08:20,1.4,�k�k��,6.0
2022/09/22,08:30,1.5,�k�k��,6.3
2022/09/22,08:40,1.4,�k�k��,6.0
2022/09/22,08:50,1.5,�k�k��,5.3
2022/09/22,09:00,1.5,�k�k��,5.2
2022/09/22,09:10,1.4,�k�k��,4.6
2022/09/22,09:20,1.5,�k�k��,4.6
2022/09/22,09:30,1.4,�k�k��,4.9
2022/09/22,09:40,1.5,�k�k��,4.8
2022/09/22,09:50,1.4,�k�k��,4.5
2022/09/22,10:00,1.4,�k�k��,5.6
2022/09/22,10:10,1.4,�k�k��,5.5
2022/09/22,10:20,1.5,�k�k��,5.9
2022/09/22,10:30,1.5,�k�k��,6.2
2022/09/22,10:40,1.5,�k�k��,5.9
2022/09/22,10:50,1.5,�k�k��,5.7
2022/09/22,11:00,1.4,�k�k��,5.7
2022/09/22,11:10,1.5,�k�k��,5.5
2022/09/22,11:20,1.5,�k�k��,4.9
2022/09/22,11:30,1.4,�k�k��,5.3
2022/09/22,11:40,1.4,�k�k��,4.9
2022/09/22,11:50,1.5,�k��,6.3
2022/09/22,12:00,1.5,�k��,5.3
2022/09/22,12:10,1.5,�k�k��,5.5
2022/09/22,12:20,1.5,�k�k��,5.1
2022/09/22,12:30,1.4,�k�k��,5.4
2022/09/22,12:40,1.5,�k�k��,5.3
2022/09/22,12:50,1.4,�k�k��,5.5
2022/09/22,13:00,1.4,�k�k��,5.9
2022/09/22,13:10,1.5,�k�k��,6.3
2022/09/22,13:20,1.5,�k�k��,5.5
2022/09/22,13:30,1.4,�k�k��,5.3
2022/09/22,13:40,1.5,�k�k��,5.8
2022/09/22,13:50,1.4,�k�k��,6.6
2022/09/22,14:00,1.5,�k�k��,5.7
2022/09/22,14:10,1.4,�k�k��,6.5
2022/09/22,14:20,1.4,�k�k��,5.0
2022/09/22,14:30,1.4,�k�k��,4.6
2022/09/22,14:40,1.5,�k�k��,4.5
2022/09/22,14:50,1.5,�k�k��,5.5
2022/09/22,15:00,1.5,�k�k��,5.1
2022/09/22,15:10,1.4,�k�k��,5.1
2022/09/22,15:20,1.4,�k�k��,6.0
2022/09/22,15:30,1.4,�k�k��,5.8
2022/09/22,15:40,1.5,�k�k��,5.8
2022/09/22,15:50,1.5,�k�k��,5.0
2022/09/22,16:00,1.5,�k�k��,6.1
2022/09/22,16:10,1.4,�k�k��,6.9
2022/09/22,16:20,1.5,�k�k��,5.2
2022/09/22,16:30,1.4,�k�k��,6.3
2022/09/22,16:40,1.4,�k�k��,6.8
2022/09/22,16:50,1.4,�k�k��,6.9
2022/09/22,17:00,1.5,�k,6.4
2022/09/22,17:10,1.4,�k�k��,5.7
2022/09/22,17:20,1.4,�k�k��,5.4
2022/09/22,17:30,1.4,�k�k��,4.8
2022/09/22,17:40,1.5,�k�k��,5.2
2022/09/22,17:50,1.5,�k�k��,5.2
2022/09/22,18:00,1.5,�k�k��,5.3
2022/09/22,18:10,1.5,�k�k��,4.7
2022/09/22,18:20,1.5,�k�k��,6.0
2022/09/22,18:30,1.5,�k�k��,6.9
2022/09/22,18:40,1.4,�k�k��,6.5
2022/09/22,18:50,1.5,�k�k��,6.1
2022/09/22,19:00,1.4,�k�k��,6.7
2022/09/22,19:10,1.5,�k�k��,6.1
2022/09/22,19:20,1.4,�k�k��,5.8
2022/09/22,19:30,1.4,�k�k��,5.3
2022/09/22,19:40,1.3,�k�k��,5.8
2022/09/22,19:50,1.4,�k�k��,5.4
2022/09/22,20:00,1.5,�k�k��,5.1
2022/09/22,20:10,1.5,�k�k��,5.0
2022/09/22,20:20,1.4,�k��,5.4
2022/09/22,20:30,1.5,�k��,5.6
2022/09/22,20:40,1.4,�k�k��,5.5
2022/09/22,20:50,1.5,�k�k��,5.4
2022/09/22,21:00,1.5,�k�k��,5.3
2022/09/22,21:10,1.5,�k�k��,5.5
2022/09/22,21:20,1.4,�k��,5.8
2022/09/22,21:30,1.4,�k�k��,4.9
2022/09/22,21:40,1.5,�k��,5.5
2022/09/22,21:50,1.4,�k��,4.3
2022/09/22,22:00,1.5,�k��,5.5
2022/09/22,22:10,1.5,�k��,5.2
2022/09/22,22:20,1.4,�k��,5.1
2022/09/22,22:30,1.5,�k��,4.7
2022/09/22,22:40,1.4,�k�k��,5.7
2022/09/22,22:50,1.5,�k��,5.0
2022/09/22,23:00,1.4,�k��,4.5
2022/09/22,23:10,1.4,�k��,4.6
2022/09/22,23:20,1.4,�k�k��,5.0
2022/09/22,23:30,1.6,�k�k��,5.1
2022/09/22,23:40,1.5,�k�k��,5.5
2022/09/22,23:50,1.4,�k�k��,5.2
